{"data":{"norad_id":65505,"epoch":"2026-05-24T20:16:18.452064Z","epoch_age_seconds":88441,"freshness":"FRESH","line1":"1 65505U 25198P   26144.84465801  .00055071  00000+0  16278-2 0  9992","line2":"2 65505  53.1588 276.2776 0000773  93.5107 266.5984 15.34425842 40295","mean_motion":15.34425842,"eccentricity":7.73e-5,"inclination_deg":53.1588,"raan_deg":276.2776,"arg_perigee_deg":93.5107,"mean_anomaly_deg":266.5984,"bstar":0.0016278,"rev_number":4029,"period_min":93.846177546324,"perigee_km":462.09764240172,"apogee_km":463.15522442852,"semimajor_km":6840.7634334151,"source":"CELESTRAK","updated_at":"2026-05-25T13:38:20.842388Z"}}